Weather History for KTTD - October, 2012

Change the Weather History Date:

Tuesday, October 30, 2012

  Actual Average Record
Temperature  
Mean Temperature 59 °F 50 °F  
Max Temperature 60 °F 58 °F 69 °F (1993)
Min Temperature 57 °F 41 °F 28 °F (1991)
Degree Days  
Heating Degree Days 6 15  
Month to date heating degree days 270 333  
Cooling Degree Days 0 0  
Month to date cooling degree days 0 0  
Growing Degree Days 8 (Base 50)    
Moisture  
Dew Point 55 °F    
Average Humidity 89    
Maximum Humidity 93    
Minimum Humidity 84    
Precipitation  
Precipitation 0.46 in 0.19 in 1.11 in (1975)
Month to date precipitation 6.55 3.75  
Year to date precipitation 35.57 32.32  
Snow  
Snow 0.00 in - - ()
Month to date snowfall 0.0  
Snow Depth 0.00 in    
Sea Level Pressure  
Sea Level Pressure 29.88 in    
Wind  
Wind Speed 6 mph (East)    
Max Wind Speed 15 mph    
Max Gust Speed 21 mph    
Visibility 9 miles    
Events Rain    
T = Trace of Precipitation, MM = Missing Value Source: NWS Daily Summary

Daily Weather History Graph

Daily Weather History Graph

Search for Another Location

Airport or City:

Trip Planner

Search our weather history database for the weather conditions in past years. The results will help you decide how hot, cold, wet, or windy it might be!

Date:

Astronomy

Oct. 30, 2012 Rise Set
Actual Time 7:47 AM PDT 5:58 PM PDT
Civil Twilight 7:16 AM PDT 6:29 PM PDT
Nautical Twilight 6:41 AM PDT 7:04 PM PDT
Astronomical Twilight 6:07 AM PDT 7:38 PM PDT
Moon 6:27 PM PDT (10/30) 8:42 AM PDT (10/30)
Length of Visible Light 11h 13m
Length of Day
10h 11m
Full, 99% of the Moon is Illuminated
Oct 30
Full
Nov 6
Last Quarter
Nov 13
New
Nov 20
First Quarter
Nov 28
Full

Hourly Weather History & Observations

Time (PDT) Temp. Dew Point Humidity Pressure Visibility Wind Dir Wind Speed Gust Speed Precip Events Conditions
12:53 AM 57.9 °F 55.9 °F 93% 29.97 in 10.0 mi East 6.9 mph - 0.02 in   Overcast
1:12 AM 59.0 °F 55.4 °F 88% 29.96 in 10.0 mi East 6.9 mph - 0.00 in Rain Light Rain
1:53 AM 59.0 °F 55.0 °F 87% 29.95 in 10.0 mi ESE 10.4 mph - 0.00 in   Overcast
2:53 AM 57.9 °F 55.0 °F 90% 29.94 in 10.0 mi East 6.9 mph - N/A   Mostly Cloudy
3:06 AM 57.2 °F 53.6 °F 88% 29.95 in 10.0 mi East 4.6 mph - N/A   Scattered Clouds
3:53 AM 57.9 °F 55.0 °F 90% 29.94 in 10.0 mi East 4.6 mph - N/A   Overcast
4:53 AM 57.9 °F 55.0 °F 90% 29.94 in 9.0 mi East 5.8 mph - 0.00 in Rain Light Rain
5:53 AM 57.0 °F 55.0 °F 93% 29.92 in 9.0 mi Calm Calm - 0.01 in Rain Light Rain
6:53 AM 57.0 °F 55.0 °F 93% 29.91 in 10.0 mi ENE 3.5 mph - 0.00 in   Overcast
7:53 AM 57.0 °F 55.0 °F 93% 29.91 in 10.0 mi Calm Calm - 0.01 in Rain Light Rain
8:53 AM 57.9 °F 55.0 °F 90% 29.90 in 8.0 mi Calm Calm - 0.03 in Rain Light Rain
9:53 AM 57.9 °F 55.0 °F 90% 29.91 in 7.0 mi East 3.5 mph - 0.05 in Rain Light Rain
11:53 AM 57.9 °F 55.9 °F 93% 29.88 in 7.0 mi East 6.9 mph - 0.09 in Rain Light Rain
12:53 PM 59.0 °F 55.9 °F 90% 29.87 in 6.0 mi East 8.1 mph - 0.11 in Rain Light Rain
1:53 PM 59.0 °F 57.0 °F 93% 29.86 in 4.0 mi ENE 5.8 mph - 0.03 in Rain Light Rain
2:53 PM 59.0 °F 55.9 °F 90% 29.85 in 10.0 mi East 6.9 mph - 0.02 in Rain Light Rain
3:53 PM 59.0 °F 57.0 °F 93% 29.84 in 10.0 mi East 5.8 mph - 0.02 in Rain Light Rain
5:53 PM 59.0 °F 55.9 °F 90% 29.82 in 10.0 mi East 8.1 mph - N/A   Overcast
6:53 PM 60.1 °F 55.9 °F 86% 29.80 in 10.0 mi East 11.5 mph - N/A   Overcast
7:53 PM 60.1 °F 55.9 °F 86% 29.79 in 10.0 mi East 11.5 mph - N/A   Overcast
8:53 PM 60.1 °F 55.9 °F 86% 29.78 in 10.0 mi ESE 6.9 mph - 0.00 in   Overcast
9:53 PM 59.0 °F 55.9 °F 90% 29.78 in 10.0 mi East 3.5 mph - 0.00 in   Overcast
10:53 PM 59.0 °F 55.9 °F 90% 29.79 in 10.0 mi Calm Calm - 0.00 in   Overcast
11:53 PM 59.0 °F 55.0 °F 87% 29.78 in 10.0 mi East 6.9 mph - N/A   Mostly Cloudy